Location: Balaclava NSW 2575, Australia
(34.4510°S, 150.4953°E)
Time: 23:07:33
(UTC+10:00)

XW-2C - Pass Details

Date: 31 July 2021
Orbit: 505 x 524 km, 97.5° (Epoch: 26 September)

Event Time Altitude Azimuth Distance (km) Brightness Sun altitude
Rises 18:06:28 0° 174° (S) 2,667 ? -10.6°
Reaches altitude 10° 18:08:37 10° 177° (S) 1,768 ? -11.0°
Maximum altitude 18:12:21 57° 256° (WSW) 617 ? -11.7°
Drops below altitude 10° 18:16:01 10° 334° (NNW) 1,730 ? -12.5°
Sets 18:18:06 0° 338° (NNW) 2,605 ? -12.9°
